RUNNER RESULTSRunner results by name. Search our database. FIND YOURS ยป

Results of the Leader of the Pack 5k – May 20, 2017 – Forest City NC

Click here for age groups. Results courtesy of Event Mercenaries.

PLACE NAME CITY GENDER AGE TIME PACE
1 Gunner Hogston M 14 18:14.3 5:53
2 Jonathan Thacker Bakersville NC M 39 18:37.6 6:00
3 Isaiah Washington Rutherfordton NC M 17 18:49.2 6:04
4 Evan Revis Rutherfordton NC M 16 20:32.5 6:37
5 Sammy Peticos Ellenboro NC M 18 20:36.5 6:39
6 Gregory Stearns Rutherfordton NC M 29 20:43.5 6:41
7 Dave Schoenmann Chesnee SC M 37 20:46.3 6:42
8 Christopher Upton Rutherfordton NC M 13 21:07.7 6:49
9 Tyler Champion Forest City NC M 17 21:27.5 6:55
10 Curtis Beason Shelby NC M 28 21:32.8 6:57
11 Amy Edelstein Shelby NC F 39 21:39.9 6:59
12 Edgar Fabian Forest City NC M 18 22:09.5 7:09
13 Lauren Revis Rutherfordton NC F 18 22:24.0 7:14
14 Morgan Miskell Shelby NC M 48 22:34.6 7:17
15 Melanie Butler Forest City NC F 43 22:55.7 7:24
16 Preston Walker Forest City NC M 17 23:18.0 7:31
17 Tremaine Stewart Forest City NC M 17 23:20.7 7:32
18 Casey Sumner Spartanburg SC F 34 23:21.0 7:32
19 Timothy Lovelace Mooresboro NC M 52 23:29.9 7:35
20 Avery Champion Forest City NC M 15 23:39.8 7:38
21 Nicholas Elton Lake Lure NC M 28 23:54.8 7:43
22 Sully Carpenter Forest City NC M 19 23:58.8 7:44
23 Mark Teague Rutherfordton NC M 12 24:21.1 7:51
24 Landon Smith Granite Falls NC M 10 24:25.1 7:53
25 Jacob Hendricks Ellenboro NC M 9 24:26.1 7:53
26 Larry Curtis Forest City NC M 56 24:42.7 7:58
27 Brett Towery M 15 24:55.5 8:02
28 Alston Worthy Forest City NC M 14 25:01.6 8:04
29 Barry Hill Bostic NC M 50 25:10.4 8:07
30 Tyler Deaton Bostic NC M 27 25:26.6 8:12
31 David Bridges Shelby NC M 57 25:28.1 8:13
32 Chris Eason Gastonia NC M 54 25:34.9 8:15
33 Chance Baker Hickory NC M 10 25:42.8 8:17
34 David Butler Forest City NC M 47 25:50.9 8:20
35 Levi Vogel Rutherfordton NC M 11 25:58.4 8:23
36 Ryan Hodge Ellenboro NC M 32 26:05.9 8:25
37 Casey Peeler Shelby NC F 35 26:08.4 8:26
38 Amy Smith Forest City NC F 48 26:17.1 8:29
39 Renee Howard Union Mills NC F 36 26:27.8 8:32
40 Dawson Hardin Ellenboro NC M 10 26:45.2 8:38
41 Jennifer Coffey Forest City NC F 32 26:46.0 8:38
42 Sammy Beheler Forest City NC M 15 26:52.3 8:40
43 Ben Towery M 11 27:02.9 8:43
44 Kaylee Keever Rutherfordton NC F 22 27:04.3 8:44
45 Chris Francis Rutherfordton NC M 42 27:17.0 8:48
46 Deshea Briscoe Forest City NC M 28 27:19.4 8:49
47 Zander McKinney Forest City NC M 10 27:54.4 9:00
48 Sydney Carpenter Forest City NC F 16 27:57.9 9:01
49 Jim Owens Kings Mountain NC M 71 28:01.1 9:02
50 Jerry Sanders Bessemer City NC M 49 28:06.0 9:04
51 Roselyn Enriquez Forest City NC F 11 28:07.4 9:04
52 Matt Emery Mooresboro NC M 35 28:08.6 9:05
53 Tim Torvinen Forest City NC M 45 28:09.1 9:05
54 Misha Dotson Rutherfordton NC F 44 28:13.7 9:06
55 Riley Coldren Forest City NC M 10 28:23.6 9:09
56 Jacob Holland Forest City NC M 10 28:32.0 9:12
57 Hunter Hendricks Ellenboro NC M 13 28:36.9 9:14
58 Mollie Burgess Ellenboro NC F 9 28:41.1 9:15
59 Sandy Carlton Shelby NC M 65 28:56.6 9:20
60 Laurence Penrose Bostic NC M 75 29:00.1 9:21
61 Gary Early Ellenboro NC M 66 29:02.4 9:22
62 Lucy Sherburne Forest City NC F 6 29:03.5 9:22
63 Ryan Sherburne Forest City NC M 45 29:04.7 9:23
64 Faith Vogel Rutherfordton NC F 14 29:06.7 9:23
65 Kc Rollins Forest City NC M 28 29:14.0 9:26
66 Tiana Teague Rutherfordton NC F 41 29:18.2 9:27
67 Leah Robbins Forest City NC F 43 29:23.7 9:29
68 Jordan Gray Forest City NC F 17 29:24.5 9:29
69 Parker Emery Mooresboro NC M 12 29:40.0 9:34
70 Kaleb Crowe Forest City NC M 13 29:49.2 9:37
71 Denise Strickland Ellenboro NC F 53 29:52.5 9:38
72 Zeke Wilkerson Bostic NC M 15 29:53.6 9:38
73 Maia Teague Rutherfordton NC F 15 30:02.7 9:41
74 Kristen McBrayer Forest City NC F 15 30:06.1 9:43
75 Keith Silver Rutherfordton NC M 39 30:07.5 9:43
76 Bruce Putnam Shelby NC M 64 30:07.9 9:43
77 Keith Ezell M 47 30:13.1 9:45
78 Cadence Epley Rutherfordton NC F 10 30:32.8 9:51
79 Malikhi Lowery Forest City NC M 8 30:35.2 9:52
80 Keith Atkins Forest City NC M 54 30:41.3 9:54
81 Caiden Little Ellenboro NC M 11 30:51.0 9:57
82 Michael Elliott Forest City NC M 9 30:51.3 9:57
83 Ayson Boyce Ellenboro NC M 9 30:52.7 9:57
84 Hannah Summerlin Forest City NC F 25 30:58.6 9:59
85 Savannah Hail F 10 31:00.9 10:00
86 Madison Guffey Rutherfordton NC F 12 31:02.4 10:01
87 Brad Wilkerson Forest City NC M 43 31:17.6 10:05
88 Kasey Eskridge Moore SC F 28 31:20.0 10:06
89 Joe Buchanan Forest City NC M 52 31:23.8 10:07
90 Devin Mosley Forest City NC M 11 31:40.1 10:13
91 Kaylin Hooper Forest City NC F 10 31:42.3 10:14
92 Beckett Webber Rutherfordton NC M 10 31:44.5 10:14
93 Roxanne Stiles Shelby NC F 45 31:49.6 10:16
94 Joselin Varela Forest City NC F 11 31:55.5 10:18
95 Dan Vogel Rutherfordton NC M 46 32:02.8 10:20
96 Stephen Walker Forest City NC M 42 32:08.1 10:22
97 Nick Elliott Forest City NC M 42 32:18.1 10:25
98 Sam Gosnell Rutherfordton NC M 10 32:22.9 10:26
99 Jude Fountain Rutherfordton NC M 0 32:23.3 10:27
100 Madison Bradley Forest City NC F 12 32:25.4 10:27
101 Sharon Jacob Rutherfordton NC F 50 32:41.4 10:33
102 Dana Bradley Rutherfordton NC F 36 32:51.1 10:36
103 Madyson Roland Forest City NC F 11 32:52.2 10:36
104 Philip Teague Rutherfordton NC M 9 33:01.2 10:39
105 Buffy Fountain Rutherfordton NC F 44 33:05.6 10:40
106 Olive Gosnell Rutherfordton NC F 8 33:05.9 10:40
107 Todd Harris Forest City NC M 43 33:06.5 10:41
108 Sesar Velasquez Forest City NC M 11 33:13.5 10:43
109 Jenna Roberson Forest City NC F 11 33:17.3 10:44
110 Kirk Wilkerson Bostic NC M 48 33:29.0 10:48
111 Kendrick MacOpson Forest City NC M 16 33:30.6 10:48
112 Joey Strickland Ellenboro NC M 60 33:33.4 10:49
113 Antonia Briscoe Ellenboro NC F 11 33:37.8 10:51
114 Johnathon Bach Ellenboro NC M 10 33:42.9 10:52
115 Alayah Moore Bostic NC F 11 33:44.5 10:53
116 Mary Grace Tisdale Union Mills NC F 11 33:44.9 10:53
117 Mcentire Gary Rutherfordton NC M 47 33:52.7 10:55
118 Zalbador Velasquez Forest City NC M 12 33:55.4 10:56
119 Matthew Butler Forest City NC M 11 34:02.6 10:59
120 Sarah Tisdale Union Mills NC F 38 34:10.7 11:01
121 Lacey Deaton Bostic NC F 26 34:16.4 11:03
122 Leigh Owens Rutherfordton NC F 49 34:18.2 11:04
123 Lydia Beheler F 11 34:21.8 11:05
124 Brook Jarrell Forest City NC M 10 34:24.6 11:06
125 Lejen Mosley Forest City NC M 9 34:24.7 11:06
126 Logan Roberson Forest City NC M 10 34:25.1 11:06
127 Jan Deviney Casar NC F 50 34:27.7 11:07
128 Braden O'Connell Forest City NC M 8 34:28.0 11:07
129 Chelsea Lovelace Rutherfordton NC F 29 34:50.5 11:14
130 Ashley Greene Ellenboro NC F 31 34:50.6 11:14
131 Carrigan Epley Rutherfordton NC F 8 34:59.0 11:17
132 Abby Smith Bostic NC F 17 35:09.8 11:20
133 Robin Smith Bostic NC F 54 35:10.2 11:21
134 Felix Thompson Rutherfordton NC M 10 35:37.9 11:29
135 Cameron Crawford Rutherfordton NC M 10 35:41.9 11:31
136 Jessica Matthews Union Mills NC F 39 35:45.2 11:32
137 Ashawn Camp M 8 36:00.5 11:37
138 Jada Whitesides F 11 36:01.2 11:37
139 Susan Simpson Kings Mountain NC F 51 36:02.9 11:37
140 Jenny Faulkner Forest City NC F 35 36:03.1 11:38
141 Victoria Faulkner Forest City NC F 13 36:05.1 11:38
142 Trajan Littlejohn Forest City NC M 8 36:08.6 11:39
143 Dash Cureton Forest City NC M 9 36:08.6 11:39
144 Daniel Worthy Mooresboro NC M 45 36:09.9 11:40
145 Blakely Robbins Forest City NC F 17 36:11.9 11:40
146 Lillie Mei Wilkerson Bostic NC M 10 36:16.3 11:42
147 Zaira Escalera Rutherfordton NC F 11 36:16.7 11:42
148 Denise Hill Bostic NC F 55 36:19.8 11:43
149 Daylan Littlejohn Forest City NC M 7 36:28.3 11:46
150 Emmanuel Pimentel Forest City NC M 18 36:29.0 11:46
151 Conrad Sherburne Forest City NC M 8 36:30.7 11:46
152 Stanley Wilkins Forest City NC M 15 36:32.9 11:47
153 Mickey Moore Bostic NC F 42 36:48.9 11:52
154 Amanda McBrayer Bostic NC F 28 36:55.4 11:55
155 Ayla Smith Forest City NC F 10 37:11.1 12:00
156 Damian Goodnight Forest City NC M 12 37:19.3 12:02
157 Alejandro Arrendondo Forest City NC M 11 37:19.6 12:02
158 Rhonda Hollifield Bostic NC F 46 37:20.8 12:03
159 Porscha Elton Lake Lure NC F 25 37:23.5 12:04
160 Lukas Thompson Forest City NC M 8 37:37.8 12:08
161 Jackson Gray Forest City NC M 9 37:37.8 12:08
162 Landon Gooch Forest City NC M 8 37:37.9 12:08
163 Kody Dalton Forest City NC M 9 37:38.1 12:08
164 Adrian Fox Forest City NC M 10 37:48.8 12:12
165 Ashley Thomas Forest City NC F 29 37:52.3 12:13
166 Chance Toney Rutherfordton NC M 9 38:03.1 12:16
167 Lauren Beard Forest City NC F 27 38:03.6 12:16
168 Fran Fowler F 41 38:07.5 12:18
169 Keira MacOpson Forest City NC F 9 38:10.2 12:19
170 Mark Gosnell Rutherfordton NC M 46 38:10.6 12:19
171 Maleah Radford Forest City NC F 8 38:14.7 12:20
172 Kristen Brown Bostic NC F 34 38:28.7 12:25
173 Brian Gooch Forest City NC M 36 38:29.4 12:25
174 Makalyn Silvers F 9 38:35.9 12:27
175 Shane Dotson Rutherfordton NC M 40 38:36.4 12:27
176 Chase Dotson Forest City NC M 8 38:37.4 12:27
177 Katherine Horton Forest City NC F 25 38:39.4 12:28
178 Jill Jennette Tryon NC F 60 38:43.1 12:29
179 Heidi Odom Rutherfordton NC F 47 38:53.1 12:33
180 Kristi Grishaw Rutherfordton NC F 54 38:53.3 12:33
181 William Mott Forest City NC M 25 39:10.1 12:38
182 Jennifer Owen Chesnee SC F 44 39:10.8 12:38
183 Michael Neady Forest City NC M 12 39:11.6 12:38
184 Michelle Coldren Forest City NC F 38 39:16.5 12:40
185 Eyrn Harrill F 28 39:32.6 12:45
186 Jennifer Ruppe Forest City NC F 41 39:36.8 12:46
187 Carliegh Williams Forest City NC F 9 39:42.2 12:48
188 Russ Williams Forest City NC M 35 39:42.3 12:48
189 Shirley Faini Forest City NC F 49 39:48.8 12:50
190 Stephanie Brooks Forest City NC F 38 39:49.4 12:51
191 Lauren Millette Ellenboro NC F 17 39:52.3 12:52
192 Leigh Harris Ellenboro NC F 36 39:57.8 12:53
193 Dylan Smith Forest City NC M 8 40:14.7 12:59
194 Ishmael Panigua Forest City NC M 8 40:14.8 12:59
195 Kelly Crawford Forest City NC F 50 40:19.6 13:00
196 Lori S Price Columbus NC F 47 40:21.5 13:01
197 Suzanne Hutchins F 40:24.0 13:02
198 Gina Greene Ellenboro NC F 34 40:34.1 13:05
199 Charlie Greene Ellenboro NC M 33 40:35.3 13:05
200 Melissa Breeden Forest City NC F 38 40:41.8 13:07
201 Leslie Blankenship M 37 40:42.6 13:08
202 Dawson Loving Forest City NC M 8 40:48.8 13:10
203 Roxanne Loving Shelby NC F 28 40:49.3 13:10
204 Brandon Loving Shelby NC M 27 40:49.4 13:10
205 Victoria Velasquez Forest City NC F 9 40:52.4 13:11
206 Ty Hutchins Rutherfordton NC M 6 41:09.1 13:16
207 Andeena Torvinen Rutherfordton NC F 37 41:10.9 13:17
208 Lisa Morrow F 51 41:23.9 13:21
209 Crystal Bradshaw Mooresboro NC F 30 41:24.7 13:21
210 Christine Bach Ellenboro NC F 12 41:34.1 13:25
211 Cj Smith Forest City NC M 8 41:44.0 13:28
212 Gavin Palmer Ellenboro NC M 9 41:44.3 13:28
213 Bobbi Hodge Ellenboro NC F 30 41:45.4 13:28
214 Alice McCluney F 38 41:46.5 13:28
215 Ian Queen Ellenboro NC M 9 41:56.2 13:32
216 Nicole Hamilton Rutherfordton NC F 47 42:00.2 13:33
217 Lisa Curtis Forest City NC F 55 42:12.9 13:37
218 Mylee Fincher Forest City NC F 9 42:21.2 13:40
219 Landon Fulbright Forest City NC M 10 42:22.0 13:40
220 Kleber Hernandez Forest City NC M 11 42:24.4 13:41
221 Lucas Bright Forest City NC M 11 42:24.7 13:41
222 Marshall Parker Rutherfordton NC M 10 42:28.3 13:42
223 Zeke McGinnis Forest City NC M 9 42:34.8 13:44
224 Kaylan Lynch Forest City NC F 10 42:38.1 13:45
225 Abril Delacruz Forest City NC F 12 42:38.4 13:45
226 Riley Demaso Forest City NC M 10 42:40.9 13:46
227 Kelly Carpenter Ellenboro NC F 59 42:58.8 13:52
228 Kara Lail Ellenboro NC F 52 42:58.9 13:52
229 Jacob Hudgins Rutherfordton NC M 9 43:09.5 13:55
230 Jo Oliver Rutherfordton NC F 51 43:10.2 13:55
231 Audrey Peticos Ellenboro NC F 49 43:18.8 13:58
232 Calie Holland Forest City NC F 10 43:25.0 14:00
233 Emily Hill Forest City NC F 10 43:26.1 14:01
234 Olivia Brown Rutherfordton NC F 12 43:27.1 14:01
235 Elizabeth Gregory Roebuck SC F 36 43:27.1 14:01
236 Rebecca Tuttle Rutherfordton NC F 29 43:30.0 14:02
237 Allison Montcastle F 34 43:31.3 14:02
238 Sheila Shipp Rutherfordton NC F 47 43:38.4 14:05
239 Jia Wilkerson Bostic NC F 11 43:50.0 14:08
240 Le Land De Maso Forest City NC M 6 43:50.6 14:08
241 Ethan Houser Forest City NC M 9 43:55.6 14:10
242 Thad Harrill Forest City NC M 40 44:02.8 14:12
243 Rodney Queen Ellenboro NC M 41 44:03.8 14:13
244 Savannah Hill Forest City NC F 8 44:04.8 14:13
245 Hope Hill Forest City NC F 38 44:05.1 14:13
246 Janet Champion Forest City NC F 32 44:07.6 14:14
247 Heather Phillips Ellenboro NC F 34 44:08.4 14:14
248 Star Coffey Forest City NC F 54 44:09.0 14:15
249 Heather Grissom Rutherfordton NC F 39 44:10.0 14:15
250 Erika Phillips Forest City NC F 8 44:10.5 14:15
251 Gina Harrill Forest City NC F 43 44:17.3 14:17
252 Ceaira Shelton Forest City NC F 14 44:23.4 14:19
253 Jordan Waters Bostic NC M 11 44:28.3 14:21
254 Ryan Moore Forest City NC M 12 44:34.1 14:23
255 Mckenzie Verepie Rutherfordton NC F 11 44:52.9 14:28
256 Shannon Sims Forest City NC F 36 44:53.0 14:29
257 Roscoe Conn M 54 45:12.1 14:35
258 Bettina Conn Forest City NC F 56 45:13.1 14:35
259 Christopher Piercy Forest City NC M 15 45:16.8 14:36
260 Debbie Stowe F 47 45:23.6 14:38
261 Robin Robertson Bostic NC F 53 45:31.1 14:41
262 Kevin Carpio Forest City NC M 8 45:48.4 14:46
263 Neal Hines Forest City NC M 10 46:08.8 14:53
264 Joshua Harbison Forest City NC M 11 46:11.1 14:54
265 Charile Freeman M 49 46:27.0 14:59
266 Payton Owens Forest City NC F 12 46:30.2 15:00
267 Easton Zaffuto Rutherfordton NC M 11 46:56.1 15:08
268 Brittney Hall Forest City NC F 10 46:56.7 15:08
269 Brittany Piercy Forest City NC F 11 46:57.0 15:09
270 Braeden Crawford Forest City NC M 11 46:57.7 15:09
271 Sarah Duncan Forest City NC F 12 46:58.6 15:09
272 Preston James Ellenboro NC M 18 46:59.2 15:09
273 Ben Carpenter Rutherfordton NC M 9 46:59.3 15:09
274 Nathan Hopper Rutherfordton NC M 11 47:05.8 15:11
275 Joshua Fillers Rutherfordton NC M 8 47:09.6 15:13
276 Erick Onesto Forest City NC M 9 47:11.4 15:13
277 Hayley Dobbins Chesnee SC F 27 47:36.3 15:21
278 Alexa Arredondo Forest City NC F 7 47:37.3 15:22
279 Lilly Greene Union Mills NC F 11 47:40.1 15:23
280 Jeremiah Harbison Forest City NC M 9 47:40.1 15:23
281 Jaden Varela Forest City NC M 9 47:43.6 15:24
282 Becky McKelvey Rutherfordton NC F 55 47:44.7 15:24
283 Kim Morris Tryon NC F 62 47:53.6 15:27
284 Ida Buchanan Forest City NC F 47 48:02.7 15:30
285 Kadyn Spears Forest City NC F 10 48:03.9 15:30
286 Hailey Davis Rutherfordton NC F 7 48:08.7 15:32
287 Eli Warren Forest City NC M 8 48:16.8 15:34
288 Mackenzie Hughes Rutherfordton NC F 11 48:22.6 15:36
289 Ethan Lammonds Forest City NC M 10 48:36.1 15:41
290 Joseline Panigua Forest City NC F 10 48:38.6 15:41
291 Riley Mensch Rutherfordton NC F 13 48:40.8 15:42
292 Raquel Hislop Rutherfordton NC F 10 48:41.6 15:42
293 Madalyn Hughes Rutherfordton NC F 11 48:43.2 15:43
294 Derek Crater Forest City NC M 11 48:45.5 15:44
295 Zack Nix Forest City NC M 11 48:47.3 15:44
296 Q'Kioja Lathan F 6 48:49.0 15:45
297 Valeria Santiago Forest City NC F 10 49:00.0 15:48
298 Hanna Smith Rutherfordton NC F 10 49:06.3 15:50
299 Isabella Lopez Herrera Forest City NC F 11 49:07.6 15:51
300 Julie Fincher Forest City NC F 40 49:14.3 15:53
301 Landon Hannon Boiling Springs NC M 10 49:19.9 15:55
302 David Thomas Bristol TN M 36 49:21.3 15:55
303 Dylan Thomas Ellenboro NC M 10 49:22.2 15:55
304 Nick Burgess Ellenboro NC M 11 49:23.1 15:56
305 Chris Sims Forest City NC M 36 49:31.8 15:58
306 Faith Porter Forest City NC F 10 49:39.2 16:01
307 Chelsea McEntire F 16 49:54.6 16:06
308 Ethan McGinnis Ellenboro NC M 26 49:54.9 16:06
309 Elizabeth Withrow Ellenboro NC F 32 49:56.4 16:06
310 Deacon Melton M 8 50:14.0 16:12
311 Taylor Alton Rutherfordton NC F 16 50:20.6 16:14
312 Courtney Poteat Rutherfordton NC F 17 50:56.3 16:26
313 Dakota Eddins Forest City NC F 10 50:57.2 16:26
314 Danielle Ensley Rutherfordton NC F 17 50:57.3 16:26
315 Gracie Emery Forest City NC F 9 51:04.9 16:28
316 Charlie Bradley Ellenboro NC M 45 51:11.3 16:31
317 Sebastian Arrowood Forest City NC M 9 51:21.3 16:34
318 Kim Deaver Rutherfordton NC F 52 51:28.7 16:36
319 Amy Emery Mooresboro NC F 37 51:31.6 16:37
320 Davis Melton M 11 51:33.2 16:38
321 Carlos Zirando Forest City NC M 9 51:40.0 16:40
322 Tara Palmer F 32 51:42.2 16:41
323 Cynthia Jones F 56 51:45.5 16:42
324 Jason Byrd M 46 52:14.9 16:51
325 Jeffrey Phillips Forest City NC M 8 52:23.1 16:54
326 Jenna Bennett F 8 52:36.1 16:58
327 Russ Bennett Forest City NC M 45 52:40.1 16:59
328 Joanna Tidball Rutherfordton NC F 8 52:52.7 17:03
329 Donald Anderson Forest City NC M 9 52:54.6 17:04
330 Katrina Shambaugh Columbus NC F 52 52:54.8 17:04
331 Azlyn Silvers F 11 53:17.5 17:11
332 Jocelynn Moody Forest City NC F 9 53:18.3 17:12
333 Layla Campbell Ellenboro NC F 10 53:19.0 17:12
334 Earrick Parker Forest City NC M 45 53:19.0 17:12
335 Shanna Hauss Bostic NC F 37 53:21.5 17:13
336 Addison Arrowood Forest City NC F 11 53:36.8 17:17
337 Savannah Hill Breeden Forest City NC F 11 53:37.3 17:18
338 Heaven Logan Forest City NC F 12 53:40.8 17:19
339 Sara Mauney Ellenboro NC F 64 53:44.0 17:20
340 Sam Dover Moore SC M 33 53:51.8 17:22
341 Eugene Wilkins Forest City NC M 8 53:54.0 17:23
342 Jennifer Elliott Forest City NC F 38 53:56.0 17:24
343 Gabby Ponce Forest City NC F 9 53:57.3 17:24
344 Sidney Wood F 53:59.2 17:25
345 Jamie McGinnis Ellenboro NC F 26 54:00.6 17:25
346 Chrissy Connell Ellenboro NC F 10 54:01.4 17:25
347 Alissia Wilkins Forest City NC M 38 54:02.5 17:26
348 Donna Ledford Mooresboro NC F 55 54:09.7 17:28
349 Jill Price Forest City NC F 49 54:10.0 17:28
350 Trinity Parker Forest City NC F 9 54:14.1 17:30
351 Carrie Wood Ellenboro NC F 39 54:22.3 17:32
352 Maleik Hickman M 8 54:36.6 17:37
353 Otto Waters Forest City NC M 11 54:49.6 17:41
354 Emma Millard Rutherfordton NC F 9 55:13.2 17:49
355 Lori McEntire Rutherfordton NC F 42 55:19.3 17:51
356 Brianna Marks Forest City NC F 10 55:34.5 17:55
357 William Brewer Rutherfordton NC M 58 55:36.4 17:56
358 Debbie Brewer Rutherfordton NC F 59 55:36.6 17:56
359 Kayla Moore Bostic NC F 12 55:37.7 17:56
360 Lisa Bradley Ellenboro NC F 41 56:02.3 18:05
361 Jose Ponce Forest City NC M 7 56:08.2 18:06
362 Christine Hensley Ellenboro NC F 28 56:08.7 18:06
363 Breanne Church Mooresboro NC F 28 56:12.7 18:08
364 Ann Smawley Rutherfordton NC F 63 56:16.7 18:09
365 Natalie Brown Rutherfordton NC F 37 56:17.0 18:09
366 Kelsey Church F 23 56:24.3 18:12
367 Jackson Byers Forest City NC M 10 56:27.7 18:13
368 Lindsey Melton F 35 56:31.0 18:14
369 Shane Phillips Forest City NC M 10 56:35.9 18:15
370 Danielle Verepie Rutherfordton NC F 48 56:49.1 18:20
371 Emma McEntire Rutherfordton NC F 11 56:49.3 18:20
372 Brandy Fox Forest City NC F 31 56:50.6 18:20
373 Summer Smith Forest City F 11 56:51.7 18:20
374 Destinee Hines Forest City NC F 12 57:21.6 18:30
375 Nevianna Mullinax Forest City NC F 9 57:21.7 18:30
376 Yalanda Mosley Henrietta NC F 39 57:25.8 18:31
377 Jennifer McBrayer Forest City NC F 44 58:03.5 18:44
378 Shawn Ridings Forest City NC M 11 58:22.7 18:50
379 Courtney Atkins Forest City NC F 25 58:24.4 18:50
380 Sheli Jenkins Forest City NC F 32 58:25.2 18:51
381 Kamdyn Robinson Forest City NC M 10 58:25.4 18:51
382 Jerrell Mosley Forest City NC M 10 58:26.6 18:51
383 Casey Ponce Mooresboro NC F 29 58:28.3 18:52
384 Jaylen Hagen Forest City NC M 8 59:06.0 19:04
385 Brynna Glover Forest City NC F 13 59:07.6 19:04
386 Abigail Thompson Forest City NC F 8 59:07.9 19:04
387 Alaiah Mosley Forest City NC F 7 59:10.6 19:05
388 Arianna Stywall Forest City NC F 9 59:26.4 19:10
389 Kailyn Skinner Forest City NC F 9 59:56.9 19:20
390 Kerri Keever Rutherfordton NC F 36 59:58.2 19:21
391 Ashley Hodges Forest City NC F 8 1:00:01.0 19:22
392 Makiyah Carter Forest City NC F 10 1:00:04.0 19:23
393 Ava McDonald Forest City NC F 10 1:00:04.8 19:23
394 Christopher Morrow Forest City NC M 8 1:00:37.5 19:33
395 Lily Gait Rutherfordton NC F 7 1:00:40.6 19:34
396 Kim Toney Ellenboro NC F 47 1:00:40.8 19:34
397 Lesley Suttle Forest City NC F 38 1:00:43.1 19:35
398 Macie Hoyle Forest City NC F 0 1:00:48.2 19:37
399 Virginia Morrow Forest City NC F 36 1:00:48.6 19:37
400 Yates McGinnis Forest City NC M 10 1:01:06.5 19:43
401 Peyton Hoyle Rutherfordton NC F 12 1:01:10.6 19:44
402 Layla Carpenter Rutherfordton NC F 11 1:01:10.9 19:44
403 Addison Hampton Forest City NC F 10 1:01:17.2 19:46
404 Jaiya Mills Forest City NC F 10 1:01:20.8 19:47
405 Camelia Lozano Forest City NC F 9 1:01:29.0 19:50
406 Caitlin Carpenter Rutherfordton NC F 34 1:01:46.1 19:55
407 Charlotte Baynard Forest City NC F 60 1:02:00.5 20:00
408 Jack McBrayer Forest City NC M 10 1:02:06.0 20:02
409 Nina Lopez Forest City NC F 12 1:02:12.8 20:04
410 Brooklyn Anderson Forest City NC F 10 1:02:21.8 20:07
411 Gracie Crain Rutherfordton NC F 8 1:02:52.4 20:17
412 Tammie Ash Shelby NC F 47 1:03:05.8 20:21
413 Kaylee Beam Forest City NC F 8 1:03:22.1 20:26
414 Tara Mauney Ellenboro NC F 36 1:03:22.2 20:26
415 Jaden Camp Forest City NC F 9 1:04:04.5 20:40
416 Matti Bostic Rutherfordton NC F 8 1:04:06.5 20:41
417 Kelly Sisk Rutherfordton NC F 39 1:04:11.1 20:42
418 Brian Sisk Rutherfordton NC M 43 1:04:12.2 20:43
419 Cameron Watt M 10 1:07:51.3 21:53
420 Jalyan Johnson Rutherfordton NC M 8 1:07:53.9 21:54
421 Meg Prevatte Rutherfordton NC F 8 1:08:04.7 21:57
422 Addison Hill Rutherfordton NC F 10 1:08:13.5 22:00
423 Nico Guariello Rutherfordton NC M 9 1:08:16.0 22:01
424 Hill Carter Rutherfordton NC M 8 1:08:19.1 22:02

[ABASE SQL=”select PLACE,NAME,CITY,GENDER,AGE,TIME,PACE from raceresults where race=838 order by place asc”]

Leave a Reply

This site uses Akismet to reduce spam. Learn how your comment data is processed.